Theta_e
316 316 316 316 317 317 318 319 319 319 320 320 320 319 319 319 319 319 320 320 321 320 318 316 317 316 319 320 319 318 317 306 301 299 298 303 313 319 320 321 322 323 325 313 306 306 302 302 301 304 302 301 300 299 302 301 302 302 294 290 285 287 285 289 287 289 291 290 292 293 294 293 290 294 296 299 298 298 298 296 298 301 300 301 301 302 302 303
315 316 316 317 316 316 317 318 318 319 319 319 319 319 319 319 319 319 319 320 320 320 320 319 317 317 316 317 318 316 313 310 300 298 297 310 317 319 321 321 322 324 323 307 304 304 301 300 301 301 299 296 302 297 302 297 302 295 291 289 285 287 289 293 292 292 291 290 293 294 295 294 292 294 295 293 293 294 294 294 296 296 298 300 300 300 301 300
316 316 316 317 317 317 317 317 317 318 318 319 319 319 319 319 319 318 318 319 319 319 321 321 320 318 316 314 318 315 311 307 298 295 299 315 318 318 320 321 322 326 310 306 306 305 302 302 302 301 298 295 297 294 298 295 298 295 292 286 287 291 291 293 294 293 294 294 293 293 294 294 294 294 296 292 292 293 291 290 292 293 294 296 298 299 300 299
316 316 316 317 317 317 317 317 317 318 318 319 319 319 319 319 319 318 318 317 318 318 318 319 321 319 314 317 320 317 312 308 292 297 301 315 318 318 320 320 323 318 310 309 307 307 306 304 302 301 297 295 296 297 293 295 295 294 291 287 289 292 290 292 294 294 294 295 293 293 294 293 294 294 294 292 290 291 291 293 292 292 294 296 297 298 298 297
316 316 316 317 317 317 317 318 318 319 319 319 319 320 319 320 319 318 317 317 317 317 318 319 320 323 315 314 317 316 306 293 291 300 303 315 317 318 318 319 323 311 310 311 312 313 307 304 302 299 297 292 295 295 293 295 296 293 290 292 292 292 290 293 294 294 294 295 294 293 291 291 295 295 292 291 288 287 290 294 295 295 296 296 296 297 297 295
316 316 316 316 317 317 317 318 318 319 319 319 319 319 320 320 319 320 320 319 317 316 319 319 321 319 317 320 316 314 307 282 297 299 312 314 316 316 316 319 321 311 310 310 306 303 302 302 300 295 294 293 292 290 293 295 298 287 291 292 293 293 291 294 294 294 294 293 292 292 293 295 293 292 293 292 290 291 296 296 296 297 298 298 298 297 294 294
316 316 316 317 317 317 317 318 319 319 319 319 318 319 320 320 320 320 320 320 320 322 320 322 319 319 315 315 303 299 293 293 299 303 311 313 314 313 315 316 315 308 308 307 307 302 300 298 298 295 294 293 292 292 294 294 295 292 288 292 292 294 292 294 293 296 293 292 292 294 299 292 292 289 293 291 293 295 296 297 297 298 299 298 296 295 293 293
316 316 316 316 316 317 317 318 318 318 318 318 318 319 319 319 320 320 320 320 320 321 322 317 318 319 320 317 298 293 292 292 298 304 310 311 307 307 310 306 306 307 305 304 305 304 301 298 295 297 293 291 292 293 294 293 293 290 289 292 292 293 293 294 292 293 295 293 294 294 294 292 292 291 292 291 293 295 295 297 297 298 297 296 295 294 292 292
315 316 316 316 316 316 317 318 318 318 318 318 317 318 319 319 318 320 321 321 321 321 322 316 318 318 320 315 301 291 289 301 302 303 303 302 303 303 305 302 305 304 304 304 305 304 304 297 297 298 291 292 295 292 294 293 287 292 291 292 292 292 293 293 293 293 295 296 294 292 291 293 294 295 291 292 294 295 296 296 297 297 296 296 296 295 292 290
315 315 315 315 315 316 316 317 317 318 316 317 318 318 318 319 318 317 319 320 321 320 320 321 317 313 308 308 305 288 298 305 305 303 302 302 304 303 304 303 303 304 302 303 304 303 301 302 301 302 298 294 295 291 294 293 289 294 292 292 291 292 292 293 292 293 294 294 294 291 290 292 295 293 287 293 294 295 295 295 296 296 295 295 295 295 292 290
315 315 315 314 315 315 315 316 317 317 317 316 317 317 317 319 319 318 319 319 320 320 321 321 320 308 299 300 291 287 306 304 304 303 304 303 304 302 302 302 303 303 303 303 302 304 305 306 306 305 300 292 295 292 292 292 295 293 293 292 292 292 293 293 293 292 293 291 293 292 290 294 295 293 287 291 294 295 293 294 294 295 294 293 293 292 292 290
314 314 314 314 314 314 315 316 316 317 317 316 316 316 317 317 318 318 317 319 317 317 317 320 319 318 304 295 290 293 305 305 304 303 304 304 303 304 305 304 304 303 303 300 302 305 306 307 310 305 291 300 288 292 291 295 296 293 292 288 290 292 291 292 291 292 294 290 293 293 289 288 291 288 291 292 294 294 293 294 294 293 292 292 291 291 290 288
314 314 314 314 314 314 315 315 316 317 317 315 315 315 316 316 317 317 318 315 315 317 320 318 318 307 309 290 294 307 306 304 305 304 304 304 305 304 305 305 306 306 305 303 303 305 307 306 305 298 301 298 292 287 293 296 293 294 292 290 289 289 288 292 293 292 292 291 293 293 279 285 288 290 292 293 293 293 292 292 292 291 291 290 290 288 289 288
313 313 313 313 314 314 314 315 316 316 317 316 316 314 316 315 315 317 318 315 316 315 318 320 316 309 297 292 305 308 310 306 306 302 302 305 302 304 304 306 309 307 309 306 308 306 307 305 306 301 304 297 293 300 293 293 293 288 291 291 285 283 284 291 291 291 289 292 293 293 281 283 288 291 292 293 295 292 290 291 291 290 290 289 289 288 288 288
312 313 313 313 313 313 313 314 314 315 316 317 316 314 314 314 314 316 316 314 313 315 320 319 316 313 295 294 309 313 315 311 301 301 304 302 301 301 301 305 305 307 307 306 305 309 308 306 307 300 295 302 299 296 291 290 291 292 287 282 285 283 285 290 293 291 287 291 294 290 283 283 288 290 292 295 292 292 289 291 291 290 289 289 287 287 287 287
312 313 313 313 313 313 313 313 313 314 314 315 317 316 315 315 315 316 317 315 315 317 317 311 305 302 294 291 301 315 307 297 297 303 304 306 302 300 303 304 307 308 307 307 307 308 307 307 299 297 299 301 298 292 291 286 286 288 286 284 282 284 284 287 290 292 292 290 292 290 282 286 287 291 292 293 293 292 289 290 290 290 289 289 288 287 286 286
312 311 312 312 313 313 313 313 313 312 313 312 313 315 316 318 316 316 317 315 316 316 309 302 304 304 290 303 310 299 296 302 305 302 303 304 306 303 304 304 302 302 306 307 307 309 306 303 302 298 296 291 291 292 287 280 281 283 287 281 285 283 284 282 289 290 291 290 286 290 286 286 288 290 291 293 292 291 289 289 289 288 288 289 288 287 287 286
312 312 311 312 312 313 313 313 312 312 313 313 311 311 314 318 317 311 311 314 314 312 312 309 305 302 293 300 291 294 300 301 302 300 303 303 306 303 304 303 303 301 303 301 302 297 300 295 297 287 289 288 288 287 281 275 281 281 282 281 283 286 285 284 284 288 289 289 286 287 287 286 288 290 290 291 292 290 289 289 288 288 289 289 287 286 287 286
311 311 311 311 312 312 313 313 312 314 315 316 313 313 313 315 314 304 301 302 301 297 293 292 295 284 279 291 299 299 299 303 303 302 297 300 302 304 305 305 305 301 298 296 294 295 295 292 291 285 282 283 284 285 283 285 286 284 285 283 283 281 283 282 287 290 289 286 285 285 284 286 288 289 290 291 291 289 289 290 288 287 287 288 287 286 286 286
310 311 310 310 311 312 312 313 313 315 316 316 317 316 315 310 304 297 299 299 294 294 297 298 299 300 299 297 295 299 304 306 300 298 298 301 300 301 302 303 302 301 294 288 294 291 295 283 280 279 281 284 286 287 287 288 288 287 287 286 283 284 286 288 288 289 290 286 284 286 286 286 287 288 289 290 291 290 289 288 287 287 285 287 286 285 286 287
310 310 309 310 311 311 312 314 314 316 315 318 316 307 301 293 300 289 294 295 298 300 298 299 299 296 296 297 299 297 294 301 302 296 297 301 305 302 294 298 295 289 290 295 292 295 291 281 280 284 285 285 286 287 287 286 287 285 284 284 283 285 282 287 287 289 291 285 283 286 286 286 287 289 290 290 290 288 288 287 287 287 287 287 286 285 284 285
310 309 309 309 310 311 312 313 313 315 316 311 306 300 299 297 300 301 301 290 297 300 301 300 303 300 300 301 302 300 299 296 296 295 298 300 299 296 294 295 291 286 290 293 290 287 282 279 283 285 288 288 287 288 286 284 282 284 283 282 281 282 285 288 288 290 289 287 283 286 285 285 287 289 289 289 289 289 289 287 286 286 286 286 285 285 284 284
309 310 309 309 310 312 312 314 312 312 309 306 302 300 297 302 304 302 300 295 293 299 299 298 294 295 296 303 301 302 294 288 288 293 294 297 296 294 294 291 288 290 289 288 282 279 278 282 285 287 287 285 285 286 283 281 284 282 283 279 277 283 281 277 285 287 288 286 283 285 283 284 287 288 289 290 289 290 290 291 289 289 286 285 284 285 284 284
309 309 309 309 311 311 313 314 313 309 303 301 299 298 302 303 303 302 302 291 292 295 299 298 299 296 295 293 298 298 294 293 292 289 298 295 291 293 293 289 289 286 285 287 284 280 279 285 288 287 286 286 281 283 280 281 281 284 285 280 279 280 281 281 282 286 288 288 287 284 281 281 285 284 286 288 290 290 289 287 287 287 289 286 288 287 286 284
308 309 309 309 311 311 312 313 306 304 310 305 300 302 302 303 302 303 300 290 293 295 301 300 299 297 297 300 302 298 296 295 294 297 299 295 290 294 291 293 291 282 288 288 288 284 282 288 289 285 286 286 284 280 276 276 278 279 280 281 280 281 282 283 285 284 279 280 284 282 275 275 281 284 284 286 287 287 287 282 282 285 286 285 284 283 285 288
307 308 309 309 310 313 310 309 303 306 307 299 301 303 304 304 302 304 299 288 282 287 301 289 304 294 300 297 300 297 295 292 295 298 301 297 297 292 292 288 289 282 286 288 280 283 283 289 287 282 284 284 285 281 281 280 277 277 278 283 285 284 283 283 283 281 275 274 278 280 273 271 278 281 283 285 285 286 286 285 283 286 285 285 285 285 285 284
307 308 309 310 309 312 312 305 306 306 307 302 303 305 304 304 305 301 296 285 281 286 288 299 299 297 304 299 298 298 282 285 299 300 297 300 295 299 292 287 291 285 282 279 282 279 285 286 284 282 282 281 279 278 281 281 277 276 284 286 285 283 282 282 281 278 277 281 279 279 278 272 272 280 285 285 284 284 286 287 287 287 287 285 286 285 284 284
307 308 309 309 309 311 304 301 307 303 301 302 305 305 303 303 305 302 292 276 272 291 287 292 297 303 301 298 300 291 290 293 290 294 298 298 297 295 292 286 285 287 286 284 277 280 283 284 282 281 280 278 276 280 283 283 278 278 287 286 282 282 282 283 279 279 280 276 275 276 276 272 273 279 285 284 280 282 282 285 287 288 288 286 287 285 284 285
307 308 309 309 308 309 307 306 305 299 301 305 304 304 305 303 300 293 285 274 280 286 300 295 305 300 296 300 296 295 294 295 289 293 299 299 298 295 287 289 289 289 289 288 281 282 283 285 283 285 282 277 281 282 283 284 277 283 285 285 284 284 284 282 278 279 279 275 272 272 274 271 272 278 281 283 281 281 283 285 286 288 288 287 287 285 284 285
306 307 308 311 311 310 305 304 298 300 302 302 303 303 303 300 298 288 278 271 285 279 294 294 294 286 293 291 292 292 291 292 293 294 298 292 297 299 292 291 292 286 287 290 286 285 286 288 290 285 280 284 282 283 284 283 283 286 284 282 283 282 278 278 278 278 275 272 274 274 277 273 269 275 278 277 277 281 284 285 287 288 288 288 288 286 285 284
306 306 307 308 301 301 300 301 299 301 303 302 303 302 301 299 287 282 269 277 287 284 294 290 288 294 288 285 284 289 290 291 291 291 288 295 291 290 291 287 292 287 282 284 283 285 286 286 286 287 288 287 286 283 286 284 285 282 278 279 280 279 278 277 278 277 270 271 275 278 277 278 268 274 281 284 285 286 285 285 285 286 287 288 287 286 285 285
305 305 306 304 305 306 301 300 300 303 302 303 301 301 299 288 285 278 274 293 279 282 280 282 289 286 287 287 286 284 282 288 290 289 284 283 283 283 282 279 279 280 281 280 280 284 283 283 283 286 287 285 283 281 284 283 284 282 280 279 275 274 276 271 275 271 273 272 275 277 279 274 273 277 281 283 284 286 287 287 286 287 287 287 287 286 286 286
305 306 306 304 303 301 300 302 304 303 303 302 301 300 289 284 272 280 279 280 278 283 284 287 286 287 285 282 281 285 285 281 288 290 287 286 285 282 284 283 283 282 275 280 280 281 281 280 285 284 285 287 286 278 278 277 279 279 277 275 274 271 269 266 270 274 275 277 277 275 279 274 278 281 284 283 285 286 286 286 286 287 287 287 287 287 287 286
305 306 304 302 302 301 302 304 303 303 302 302 299 292 286 280 275 283 275 281 278 283 287 285 285 286 280 281 283 283 280 285 283 285 287 283 284 280 283 284 284 280 280 280 277 277 275 277 281 283 280 284 284 281 280 278 278 278 281 276 275 273 269 265 269 267 270 274 278 278 273 272 275 279 285 284 286 286 285 286 286 286 287 287 287 287 287 286
305 304 306 303 303 302 304 303 303 302 301 301 292 290 280 277 280 279 280 280 281 283 283 281 282 283 281 280 283 284 283 281 286 283 283 282 279 279 279 279 283 282 280 277 280 278 280 279 283 284 284 285 284 285 285 280 279 279 280 281 276 273 275 270 272 271 271 270 270 273 272 277 279 285 284 285 285 286 286 286 286 286 286 287 287 287 287 287
304 307 307 305 304 303 304 304 303 302 301 297 289 284 282 279 280 281 283 290 287 280 283 282 284 282 283 283 280 282 286 281 285 281 281 281 280 279 282 280 280 282 277 277 279 275 278 278 282 285 284 281 282 285 285 283 274 278 278 274 275 279 276 272 273 273 271 271 269 276 278 280 284 282 283 283 284 285 285 284 284 284 285 286 286 287 287 287
306 308 305 306 303 302 302 302 302 300 300 295 289 283 279 277 278 282 287 287 286 286 281 280 280 278 277 280 282 283 282 283 282 282 280 281 279 279 281 281 284 282 281 279 278 280 274 277 283 283 281 282 284 283 284 284 282 279 275 277 281 280 278 273 268 270 270 267 271 277 275 276 277 275 281 282 281 283 284 284 283 284 285 284 285 286 287 287
304 304 302 305 302 303 303 302 300 300 299 291 282 284 279 278 284 285 287 287 286 284 283 281 280 281 279 280 281 280 283 281 282 280 279 279 278 285 281 281 283 283 282 282 278 277 280 275 280 280 282 283 285 284 282 284 285 281 278 279 277 273 272 274 273 267 267 266 269 274 277 277 278 276 277 280 280 281 283 284 284 284 284 285 286 286 287 287
305 302 301 304 303 303 302 302 301 300 294 288 285 285 280 280 285 285 285 286 287 284 282 280 281 278 278 281 281 282 281 279 281 279 278 279 278 283 282 282 281 284 283 283 279 280 282 273 278 281 282 283 281 279 277 278 281 277 282 280 279 278 275 272 272 272 273 268 269 269 275 274 280 277 281 281 282 283 283 284 284 285 286 286 287 288 288 288
301 302 299 305 302 303 303 301 302 296 290 286 285 279 278 280 283 286 286 286 283 284 283 283 279 281 279 277 280 278 282 281 279 279 279 279 280 286 282 284 281 281 283 284 281 281 277 279 272 280 281 281 279 279 277 278 277 277 277 276 276 276 278 277 275 272 270 268 268 269 269 276 282 284 281 281 283 285 286 286 286 286 286 286 287 288 289 289
301 297 297 304 302 303 301 300 290 287 283 279 279 277 278 279 284 286 287 287 286 288 285 283 283 280 279 280 279 279 279 280 280 279 280 278 279 278 284 283 283 281 282 277 279 279 276 277 274 278 278 278 279 279 280 280 280 279 278 277 278 276 275 273 273 274 272 271 267 268 269 276 282 283 282 281 282 284 286 286 287 286 286 286 287 289 289 289
299 289 298 305 302 303 304 289 286 287 287 284 282 282 281 287 281 284 283 285 285 283 284 283 283 282 279 278 280 279 277 279 279 279 280 279 282 282 283 287 285 283 279 277 279 281 279 276 275 273 276 280 279 280 281 280 277 276 278 278 278 278 278 276 271 274 274 273 272 271 270 274 282 283 283 282 283 284 286 287 286 286 286 287 287 287 287 289
298 292 306 303 303 303 300 287 289 286 280 279 282 284 286 283 282 284 282 283 280 284 284 281 284 281 280 279 276 277 278 279 280 280 282 280 277 281 285 286 286 284 281 279 281 278 283 275 274 277 281 279 278 279 280 278 279 277 276 277 278 276 278 277 277 277 272 273 271 271 267 272 282 283 284 284 284 283 283 284 286 286 287 287 287 287 286 287
298 296 301 307 303 304 298 287 285 282 280 279 281 281 287 282 283 279 279 282 282 281 285 284 283 284 281 282 280 277 278 277 282 281 281 280 280 285 285 284 280 280 280 279 277 281 274 277 276 273 275 276 275 275 275 273 275 278 278 278 278 279 277 277 277 278 272 273 274 272 267 272 281 282 284 283 283 283 284 285 286 285 286 287 287 287 287 287
295 298 292 301 303 301 292 288 287 284 282 278 278 278 280 282 284 283 284 282 286 283 284 283 285 283 278 278 274 276 274 276 276 280 280 281 281 284 285 284 282 280 285 286 285 282 277 275 274 271 270 269 270 272 273 274 277 279 279 280 279 278 278 275 272 274 269 272 275 270 271 278 282 283 284 285 286 284 284 286 287 287 286 287 287 287 287 287
291 288 293 294 294 294 288 292 289 286 282 280 279 280 282 280 284 285 283 283 285 286 283 284 283 284 280 279 275 273 273 275 275 275 276 279 281 281 280 283 283 282 284 284 284 281 275 276 275 275 273 274 277 279 282 282 279 275 278 279 279 279 279 278 276 273 271 274 273 275 276 277 279 282 283 283 284 284 285 285 285 285 285 285 285 286 287 287
292 291 288 289 291 290 288 289 286 287 284 286 284 280 279 282 283 281 282 278 284 282 280 283 283 280 279 280 278 275 272 272 273 271 274 278 282 281 282 283 283 284 284 283 283 278 275 273 275 275 277 278 280 279 280 280 276 277 277 277 278 279 279 276 273 272 277 274 271 278 279 277 279 281 282 283 284 284 285 285 284 283 284 285 285 285 288 286
291 287 289 284 287 288 289 285 287 284 286 285 282 284 282 280 281 279 281 283 282 280 279 280 282 283 282 282 281 277 273 272 270 273 277 279 279 280 278 280 280 282 284 281 283 278 274 271 277 276 276 278 278 279 279 278 278 278 278 277 277 278 278 276 276 277 277 273 272 277 279 277 279 281 283 283 284 284 285 285 285 285 285 285 284 284 284 284
291 287 286 283 288 283 285 286 289 288 286 286 283 284 280 280 281 284 281 279 280 280 281 279 280 282 283 284 280 279 275 276 276 274 273 276 278 280 278 278 279 281 281 278 276 275 274 272 274 275 275 276 277 277 278 277 277 278 278 278 278 278 277 278 278 278 278 276 278 278 278 278 280 281 283 284 285 285 286 285 283 283 283 285 286 285 285 285
289 289 287 286 286 284 285 286 288 289 285 287 283 282 284 283 282 281 283 279 277 278 282 279 280 284 284 284 282 279 281 281 281 277 281 279 276 279 278 280 276 277 279 276 275 272 274 273 278 274 272 274 277 278 278 277 277 276 278 278 278 278 277 277 277 278 278 277 278 278 277 277 282 284 284 285 286 286 284 283 283 283 283 284 285 286 285 284
290 287 290 288 287 284 284 286 286 286 286 283 284 285 286 285 284 285 283 286 285 280 279 281 284 283 284 283 283 282 285 284 285 283 284 281 278 281 277 279 280 276 278 276 276 273 274 272 276 272 271 272 276 275 276 277 277 275 275 276 276 276 274 276 276 278 276 275 276 276 275 276 281 284 284 284 284 283 283 283 283 283 284 284 284 285 284 284
293 293 292 291 287 286 286 284 284 284 285 287 288 286 286 286 287 285 282 287 287 286 284 285 285 283 281 282 282 284 287 285 286 286 285 286 285 283 284 283 282 279 278 277 278 273 272 272 272 272 270 270 274 276 275 275 273 272 274 277 278 278 278 278 278 279 279 279 276 274 275 281 283 284 282 283 283 283 283 283 283 283 284 284 284 284 284 284
Wind_Speed
14 14 14 14 14 14 14 14 14 15 15 15 15 15 15 14 13 13 13 13 13 12 12 12 11 11 8 8 7 7 12 8 19 21 25 14 18 23 22 23 23 24 23 13 13 13 12 11 13 10 8 6 6 7 7 10 7 5 6 6 11 6 9 5 9 7 4 6 8 9 9 9 11 11 9 12 9 8 10 12 11 9 10 8 7 9 10 11
15 15 15 15 15 15 15 15 15 16 16 16 15 15 15 15 15 14 14 13 12 11 10 10 11 11 7 6 6 8 7 8 14 26 19 19 26 25 24 24 24 23 20 10 12 12 11 10 10 9 8 9 5 9 6 6 9 9 6 9 9 5 5 7 6 7 6 7 8 8 7 8 8 9 9 8 11 12 12 11 11 11 10 10 9 10 11 11
16 16 16 15 15 16 16 16 16 16 16 16 15 14 15 14 14 15 15 14 14 14 14 12 13 12 3 1 2 5 4 6 23 22 18 27 27 26 26 25 24 22 13 9 7 9 10 8 6 9 8 11 10 7 10 6 7 11 9 9 8 6 7 8 7 7 6 6 7 8 8 6 6 6 6 8 8 13 11 11 13 12 13 13 11 9 8 8
16 16 16 16 16 16 17 17 17 17 16 16 15 14 14 14 14 13 13 13 12 12 13 14 14 11 1 2 1 3 2 5 16 11 15 28 27 26 27 27 24 17 14 6 5 5 7 10 9 8 8 13 7 10 13 8 3 3 7 6 5 4 5 6 7 7 6 6 7 6 5 5 5 6 6 8 7 8 6 7 8 11 11 11 9 8 8 9
16 16 16 16 16 16 17 16 16 16 16 15 14 14 13 13 13 14 13 12 11 9 10 11 12 10 4 2 7 3 2 4 6 12 17 28 26 27 26 26 22 14 13 10 2 3 6 7 6 11 9 8 7 9 11 11 8 6 10 8 7 4 6 5 6 6 5 5 4 5 6 6 4 6 7 8 6 4 6 7 7 7 7 7 9 7 7 9
16 16 16 16 16 16 16 16 16 15 15 14 14 14 13 12 12 12 12 11 10 11 10 9 11 11 10 3 4 2 1 6 5 10 22 25 26 26 25 23 19 13 13 11 8 7 6 6 9 9 6 11 12 12 9 8 1 9 7 7 6 5 6 4 5 4 4 6 5 4 5 4 6 3 5 5 6 4 4 5 5 5 5 4 4 5 7 8
16 16 15 15 15 15 15 16 15 15 14 14 14 13 13 12 11 11 12 11 11 11 11 9 9 8 6 9 17 21 16 6 5 11 22 22 24 23 22 16 15 10 10 13 12 5 7 10 9 9 9 12 11 12 10 11 10 11 7 5 7 6 6 3 4 2 3 5 7 3 2 4 6 5 4 4 4 4 5 5 4 5 4 4 5 5 6 6
15 15 15 15 15 16 16 15 15 15 14 13 13 13 13 12 11 11 11 12 11 11 11 17 15 10 6 1 9 12 13 6 13 13 18 20 19 18 17 8 15 9 13 14 12 9 5 7 8 7 10 8 5 9 9 11 8 9 8 5 6 4 4 3 3 1 2 2 4 7 1 4 3 4 3 5 4 5 6 5 4 4 5 4 5 5 5 6
15 15 16 16 16 17 17 16 15 15 15 14 13 13 12 12 12 11 11 11 12 12 13 14 14 7 3 1 3 11 10 4 10 14 15 15 15 14 13 13 16 10 9 12 12 13 5 7 11 7 6 7 3 5 3 1 7 6 9 6 6 5 5 2 2 2 1 1 3 5 4 3 4 4 2 5 4 5 6 6 3 3 5 5 5 5 5 6
16 16 16 16 17 17 17 17 16 16 15 14 13 12 13 12 12 12 11 12 13 13 11 11 14 17 9 2 4 15 1 7 8 10 13 12 13 13 13 13 14 12 9 11 12 12 10 4 7 4 7 10 6 8 9 7 6 5 7 7 6 4 3 3 5 4 1 1 5 4 6 1 3 3 2 8 6 6 6 6 4 4 4 5 6 5 5 5
17 16 17 17 17 17 17 17 17 16 16 15 13 12 12 13 13 14 13 12 12 12 12 12 13 16 12 7 12 13 3 8 5 8 12 12 10 10 11 12 12 11 10 8 9 9 7 4 4 4 4 4 4 6 4 4 4 6 6 6 8 7 5 3 5 4 3 3 6 6 4 2 2 2 3 5 5 6 7 7 5 5 4 5 6 6 5 5
17 17 16 16 17 17 17 17 17 16 15 15 12 11 11 12 12 12 12 10 10 11 12 10 9 2 4 12 20 4 8 5 5 8 6 9 9 5 7 8 8 9 9 7 7 6 7 5 4 1 3 3 6 5 4 2 2 4 4 2 6 7 5 5 7 7 2 3 5 6 8 3 2 3 3 3 4 6 7 7 6 5 4 4 4 4 4 5
16 16 16 16 16 16 16 16 16 16 15 14 11 9 9 9 10 11 10 11 12 11 11 11 10 6 2 15 5 3 3 4 4 8 9 9 10 3 6 6 6 6 7 6 6 6 6 7 7 10 3 2 3 2 3 3 3 2 4 2 5 4 5 5 5 8 3 3 6 8 3 3 2 4 2 2 3 5 6 6 4 3 4 5 5 4 4 5
16 16 16 15 15 15 15 15 15 15 14 13 10 8 8 7 8 9 8 7 9 11 9 8 2 3 9 8 3 2 3 2 4 12 11 9 10 6 7 9 4 3 3 4 3 4 6 6 3 5 2 4 2 4 2 2 3 2 2 2 3 3 2 4 4 6 4 4 6 5 2 2 6 2 3 2 2 3 5 6 4 5 4 4 4 4 5 5
16 16 16 15 15 15 16 16 16 15 14 12 11 9 6 7 7 9 8 9 12 15 10 3 2 1 7 3 4 4 8 4 10 10 7 10 8 5 10 10 5 3 3 1 2 3 3 6 2 2 3 3 6 1 3 4 2 1 0 3 3 5 1 3 3 6 7 5 6 6 2 4 3 2 6 2 2 1 3 6 4 5 5 6 3 4 5 5
16 16 15 15 14 14 14 15 14 13 12 12 11 12 11 12 11 7 8 4 8 11 8 3 7 3 11 5 3 5 3 13 13 9 6 5 4 3 7 9 4 3 4 1 3 1 2 2 4 5 3 1 1 2 1 3 2 5 5 1 3 3 3 3 2 5 5 6 3 3 3 5 1 7 4 3 2 2 3 5 4 6 6 6 5 4 4 4
16 16 15 15 14 13 12 12 12 11 10 10 10 10 11 11 14 9 9 5 2 4 5 4 7 3 6 2 3 5 5 5 6 6 9 6 1 3 7 5 2 6 4 4 5 1 2 1 1 1 7 8 9 4 1 5 4 4 6 3 2 6 3 3 3 3 6 8 7 4 4 4 5 3 2 2 3 2 2 3 4 4 3 5 4 4 6 6
17 17 17 15 14 13 13 13 13 10 9 8 5 6 7 11 12 14 9 3 1 1 2 3 2 2 3 5 6 8 7 5 9 8 5 7 0 4 3 2 3 6 5 3 1 8 5 3 5 6 8 12 13 11 6 2 4 5 7 5 4 5 4 4 4 4 7 6 7 7 6 5 7 5 3 2 2 1 2 2 3 2 4 5 4 4 6 6
17 17 17 16 15 14 13 13 14 11 10 9 8 8 6 7 4 9 14 9 7 6 6 11 10 7 1 8 6 6 6 5 7 6 13 10 5 4 4 5 4 6 3 2 3 5 5 1 4 13 11 10 10 9 7 5 7 6 6 5 6 5 6 4 5 5 7 9 7 4 6 8 8 8 4 2 3 1 2 1 2 2 0 1 2 0 3 5
17 16 16 16 15 13 13 13 13 10 8 5 2 2 1 0 2 4 8 14 14 9 4 2 4 3 1 5 8 9 10 2 3 11 12 7 7 7 3 1 3 1 4 4 5 8 4 14 10 2 5 7 7 7 7 7 5 7 5 5 6 7 4 7 6 4 5 6 2 6 8 8 8 8 5 2 1 0 1 0 2 1 2 3 1 3 2 2
16 15 15 15 14 12 12 12 13 11 10 3 2 3 3 3 1 4 4 9 4 4 5 2 3 3 2 4 5 9 7 3 1 10 11 12 3 2 7 5 4 10 10 3 1 1 4 14 6 3 3 5 6 4 4 6 5 6 7 4 7 4 6 10 4 6 5 6 5 6 9 10 9 8 4 2 0 2 1 2 2 3 3 3 3 2 3 3
16 15 15 15 13 11 10 10 13 11 7 6 10 6 4 2 1 2 1 4 3 3 2 1 2 2 2 2 2 1 3 2 6 14 11 13 8 3 6 5 7 10 9 2 2 2 10 7 2 3 2 3 5 3 4 5 6 5 5 3 4 5 8 3 3 2 5 8 7 7 10 13 12 9 1 1 1 1 2 2 2 0 2 1 2 2 3 3
16 15 15 15 14 11 9 9 9 13 5 6 5 5 3 1 1 3 2 5 4 2 2 3 5 4 4 3 2 2 3 10 5 9 12 11 4 7 4 5 8 4 6 8 7 2 6 3 4 3 2 3 3 2 9 5 4 3 2 3 5 4 7 6 4 10 12 5 7 7 11 13 10 4 2 1 1 1 4 2 1 1 3 1 1 3 1 1
17 16 15 15 13 10 8 8 8 6 9 9 10 5 2 1 1 1 1 2 3 2 2 0 2 2 3 4 3 4 3 3 2 13 8 6 6 4 2 4 4 3 7 7 10 9 3 1 2 2 4 3 4 2 9 8 2 2 2 1 3 5 3 3 8 10 13 3 6 7 9 3 0 2 2 3 4 3 3 2 1 3 2 3 3 1 3 1
17 16 14 14 13 8 7 8 4 3 1 4 5 2 1 0 2 1 0 1 1 1 2 0 1 2 1 1 3 1 1 2 2 2 3 4 8 2 2 1 1 4 3 4 4 7 2 0 1 3 2 3 2 1 4 2 5 2 2 1 0 1 6 6 8 10 4 0 2 7 7 2 2 2 1 3 2 3 4 3 3 4 3 4 3 3 4 2
17 16 15 14 15 9 5 1 2 1 2 4 2 1 1 1 2 2 0 1 2 4 1 5 2 3 3 2 2 2 1 2 2 2 2 1 3 2 2 2 2 2 3 3 2 2 1 1 1 2 3 4 3 1 0 1 5 3 1 2 0 2 4 6 7 5 3 3 3 3 3 8 3 4 2 1 3 2 5 3 5 4 3 4 4 5 5 3
18 16 15 14 14 14 1 1 0 1 1 2 2 1 0 1 2 2 1 0 3 2 3 3 0 1 1 3 5 4 3 5 0 2 1 2 3 1 3 2 1 2 2 0 1 2 3 3 5 3 3 2 4 2 2 3 3 3 1 2 1 3 5 5 4 1 3 3 2 3 1 2 7 2 1 1 1 3 3 6 5 5 4 5 3 4 3 3
17 17 15 13 13 11 2 3 1 2 2 2 1 1 2 2 1 2 0 2 2 3 2 3 1 3 3 5 7 5 2 5 2 2 3 0 1 1 1 1 2 3 2 0 4 2 2 2 3 5 3 3 3 0 3 2 0 5 3 4 5 4 4 3 2 4 4 2 2 1 1 1 3 1 0 3 2 3 5 4 5 6 5 4 2 3 3 3
17 17 16 12 10 9 6 2 2 3 2 1 1 1 1 2 1 1 0 2 1 1 5 1 1 1 5 5 3 3 0 2 2 3 4 1 1 1 2 2 2 3 2 2 2 1 1 1 0 3 1 3 3 3 2 2 2 3 7 9 7 3 2 2 0 4 5 0 2 0 1 2 7 1 2 0 2 4 2 4 4 5 5 5 4 3 4 3
15 18 18 15 6 2 2 4 6 2 2 3 2 2 2 2 0 1 1 1 0 1 2 3 2 5 5 4 0 6 4 2 3 4 1 3 3 1 2 2 1 2 1 2 3 3 1 2 1 2 1 1 3 5 3 3 7 7 9 8 4 4 3 0 2 2 1 1 1 2 2 2 3 3 3 2 2 1 2 2 3 4 4 4 4 4 3 4
11 15 18 14 6 1 3 2 3 3 2 2 3 3 2 0 1 1 2 1 2 1 0 1 2 3 4 6 3 6 2 3 4 5 4 1 6 6 2 1 1 0 1 2 1 1 2 0 0 0 0 3 3 5 2 4 2 3 3 4 6 3 3 1 1 0 1 1 1 2 1 1 0 3 5 3 3 1 1 0 4 4 4 4 4 4 4 4
9 9 14 9 2 3 3 1 2 2 2 3 4 1 0 1 4 5 2 1 0 1 2 3 1 1 4 2 0 5 4 5 2 4 5 3 6 10 9 4 5 4 2 6 4 2 1 1 0 2 2 3 3 3 0 1 2 2 5 6 5 4 0 3 1 3 0 3 1 2 2 2 5 7 3 4 3 1 1 3 3 4 4 4 4 4 4 4
8 8 4 6 5 3 3 0 1 1 2 3 2 1 1 1 2 1 1 1 1 1 0 3 3 3 4 2 3 3 0 3 4 0 2 2 2 3 4 8 3 1 2 4 5 6 1 2 2 1 1 1 2 5 6 2 5 8 6 5 6 6 5 4 3 2 3 1 3 3 1 2 5 2 0 3 4 4 4 4 4 3 4 4 4 4 4 4
7 8 1 2 3 3 1 0 1 2 3 1 1 1 3 5 1 4 1 2 1 1 3 1 4 3 4 3 2 3 3 1 2 4 3 1 5 2 3 6 11 6 1 3 4 4 5 3 0 1 2 2 2 2 0 3 4 4 3 2 1 2 0 2 3 4 5 9 10 6 0 2 5 2 3 4 4 4 5 5 5 5 4 3 4 4 4 4
7 4 1 2 2 2 1 0 0 1 1 1 2 1 4 1 0 0 0 0 1 1 1 1 2 2 1 1 0 0 2 2 2 3 5 4 3 2 4 6 7 5 2 1 1 1 1 6 1 1 1 2 3 0 1 2 2 3 3 1 1 0 0 3 2 4 5 6 6 1 2 2 3 1 1 1 2 1 4 4 3 2 2 2 1 2 3 3
4 2 2 1 1 1 0 0 1 1 1 0 4 6 3 0 0 2 1 2 1 1 1 2 1 1 2 1 1 0 1 0 3 3 2 3 1 3 1 2 4 6 4 3 3 3 4 2 1 1 4 3 1 1 2 1 3 3 3 2 1 1 2 3 3 2 1 0 6 4 3 4 0 1 2 2 1 2 2 3 2 2 1 2 1 1 2 3
2 0 0 1 1 1 0 0 1 2 2 2 4 2 0 1 1 1 4 2 0 2 1 1 3 3 2 2 1 4 1 1 1 1 2 0 2 2 1 1 2 3 3 1 2 2 1 11 5 3 1 1 1 1 1 3 0 2 1 1 1 2 2 1 3 2 2 3 2 3 6 7 6 3 4 1 3 2 3 2 3 3 3 3 4 4 4 4
2 1 0 1 1 0 0 0 1 2 1 6 5 4 0 1 1 2 2 2 1 0 1 2 0 1 1 0 2 4 4 1 6 4 1 1 0 1 1 1 1 2 0 1 1 1 0 5 1 1 0 1 1 1 0 1 0 1 1 1 2 2 2 1 1 6 7 5 6 2 6 6 5 2 5 6 3 4 3 2 1 2 3 4 4 5 5 5
1 1 0 1 0 1 0 1 0 1 1 7 2 3 1 1 1 1 2 2 2 1 1 0 0 1 0 2 2 1 4 3 5 1 1 1 2 1 0 0 0 1 0 2 0 3 1 1 3 1 1 2 1 1 1 1 1 2 3 2 1 1 1 4 1 3 0 7 8 4 7 5 1 2 7 8 6 7 3 1 1 1 0 1 1 2 3 4
2 0 0 2 0 1 0 0 0 5 6 4 1 2 1 1 0 1 1 2 1 1 2 1 0 0 0 1 0 2 1 1 2 2 1 1 1 2 1 1 0 1 2 1 0 0 2 1 3 1 2 1 1 0 0 2 1 0 1 1 0 1 3 3 1 1 1 3 1 4 9 5 3 6 4 3 5 6 5 5 4 3 3 3 1 2 4 4
1 1 1 1 1 1 1 2 10 6 5 0 3 3 1 2 1 1 2 1 0 1 0 2 2 1 1 2 0 2 1 2 2 2 1 0 2 2 1 1 1 1 0 1 0 1 0 1 5 9 9 2 2 0 0 1 0 0 0 0 1 2 3 4 4 2 2 1 3 3 10 11 8 1 2 2 3 3 3 4 2 2 2 4 3 0 0 2
1 2 1 0 0 1 1 6 4 1 2 2 1 1 1 2 1 1 1 0 1 0 0 1 2 2 1 1 1 2 2 2 0 1 1 1 0 0 0 4 3 1 2 1 0 1 1 2 2 7 4 11 0 2 0 0 2 1 0 0 2 1 1 1 4 1 1 2 0 3 3 8 2 1 2 2 1 1 0 0 3 3 2 2 2 4 3 1
2 1 1 1 0 0 5 5 3 4 4 0 3 0 0 1 0 2 1 1 0 1 0 1 1 1 3 1 2 2 2 1 0 0 1 1 0 1 1 3 3 2 1 1 1 0 1 0 3 5 7 1 3 2 1 3 1 1 0 1 0 1 2 3 2 0 2 1 1 2 4 9 5 1 2 0 0 2 2 2 4 4 3 3 2 2 3 4
1 2 2 1 1 2 2 1 2 2 2 1 0 1 0 0 0 1 1 0 1 1 1 1 1 3 1 2 1 1 3 2 1 1 0 1 0 1 3 2 3 0 0 0 0 1 2 1 1 7 5 2 1 2 1 1 1 1 1 3 4 1 1 0 1 0 3 6 8 3 7 3 0 3 2 3 2 4 4 3 2 4 4 3 2 1 1 2
2 0 0 3 3 3 2 0 4 5 2 3 2 3 0 0 2 2 1 1 0 0 1 1 1 1 2 1 1 1 1 1 3 1 0 2 0 1 4 1 2 0 4 2 1 1 1 3 2 3 8 11 10 6 6 4 3 3 2 1 3 4 3 1 1 1 4 3 7 4 8 7 3 1 5 9 11 6 5 6 6 4 4 6 4 2 2 3
1 1 1 1 5 5 4 0 3 5 6 3 2 0 1 1 0 2 2 1 1 0 1 1 0 1 2 1 2 4 3 2 0 3 4 1 1 0 1 1 2 1 3 2 2 0 0 1 2 3 4 7 9 10 4 6 9 9 10 8 7 5 5 4 3 5 10 4 6 11 12 16 17 15 10 9 7 13 12 7 6 4 4 4 4 2 2 3
1 1 1 2 2 5 4 3 2 3 3 4 1 4 1 1 2 1 1 1 0 1 0 0 1 1 1 1 1 1 1 5 2 1 4 2 0 2 1 2 1 3 2 1 1 1 0 2 6 7 10 11 11 14 11 7 12 14 13 12 5 5 5 7 7 11 0 4 13 9 10 11 14 7 9 14 14 11 11 8 6 4 4 5 4 3 4 3
1 1 0 1 1 1 1 2 3 4 3 1 1 1 4 3 2 1 0 0 1 0 1 0 0 3 3 2 3 1 1 1 2 3 3 2 1 2 2 1 0 2 2 0 1 0 0 2 2 5 7 10 10 13 12 12 12 13 14 12 12 8 8 10 13 14 7 8 15 11 9 13 19 16 15 14 13 12 11 11 5 3 5 6 5 3 2 4
2 1 1 1 1 0 1 1 1 4 4 2 1 1 2 3 4 2 3 1 0 1 3 0 2 6 5 2 1 0 4 1 3 5 3 2 1 1 1 1 1 1 1 0 1 0 1 5 3 1 8 8 10 14 13 13 14 16 15 12 11 10 11 12 15 12 12 15 15 16 16 19 19 18 16 16 14 12 11 6 4 3 5 5 4 2 3 4
0 0 0 1 2 2 0 0 0 0 1 1 1 3 3 4 4 1 0 3 2 1 1 1 4 1 5 4 4 2 4 5 3 3 2 3 3 3 2 2 2 1 2 1 1 2 2 3 4 1 4 9 10 10 10 7 8 16 21 14 12 11 11 12 10 11 11 13 16 18 18 19 18 15 11 12 12 9 6 5 5 4 4 5 4 4 4 5
0 1 0 2 1 0 0 0 0 1 1 1 0 1 1 3 3 5 2 3 1 5 5 5 3 2 0 3 4 7 4 1 1 3 2 3 4 2 1 1 3 3 3 2 1 1 1 4 3 1 7 7 2 2 6 8 10 15 20 22 17 7 7 8 7 8 6 12 11 9 10 13 14 7 7 7 5 5 6 5 4 3 4 4 5 5 5 5
0 1 1 0 1 1 0 1 0 1 0 0 0 2 1 3 3 5 1 1 1 1 6 4 4 2 1 1 7 5 1 0 1 3 2 5 4 4 1 0 1 2 5 4 3 3 3 1 3 4 6 6 0 1 10 12 11 10 8 7 6 3 6 4 5 7 10 8 6 7 11 12 8 4 4 6 6 6 5 4 3 4 5 5 5 6 6 6
Wind_Direction
18 15 12 12 9 5 5 3 359 360 360 359 1 2 2 4 3 1 358 358 351 346 348 349 339 333 324 324 325 327 332 14 32 38 41 15 342 337 334 331 330 325 323 321 352 7 18 37 40 34 46 35 12 26 356 21 341 14 44 73 57 54 46 21 34 17 355 13 8 16 17 23 13 355 358 328 24 32 36 35 10 16 34 24 14 6 3 0
16 13 11 10 9 7 5 3 1 360 0 3 1 3 3 1 1 360 358 355 349 341 335 338 343 334 318 315 307 305 326 0 32 39 33 350 345 341 339 334 331 325 316 337 356 353 13 36 53 49 46 54 2 42 354 49 5 56 71 66 75 51 48 37 31 36 7 4 14 13 21 31 33 352 348 355 352 35 19 8 9 356 358 6 8 10 2 360
14 12 9 8 7 6 4 2 2 1 1 1 1 0 1 1 358 357 358 355 350 344 338 331 326 338 287 319 344 338 357 341 33 20 356 348 344 340 338 337 331 325 334 323 330 324 15 13 52 57 52 70 26 41 42 42 28 35 87 79 78 81 77 44 39 34 33 355 22 12 15 31 41 26 345 17 334 43 30 356 351 2 348 350 353 8 356 5
13 11 10 8 6 4 3 2 1 2 1 358 357 359 358 356 357 1 5 8 2 350 339 333 326 345 170 262 347 279 355 3 43 350 344 342 342 341 337 337 332 331 330 329 295 308 39 41 38 55 68 62 55 45 50 2 56 9 66 76 89 82 85 49 35 23 27 18 14 21 11 18 42 49 32 3 5 30 15 12 350 339 340 342 347 1 354 1
14 11 9 7 5 3 2 360 359 359 360 356 355 355 358 359 357 2 12 18 13 2 346 333 334 351 175 65 237 250 27 24 21 349 339 339 340 339 337 335 334 343 342 339 336 126 77 52 55 55 53 67 51 65 62 57 64 89 64 71 86 101 83 58 48 12 10 19 18 14 17 8 343 71 37 30 46 359 354 343 337 333 337 340 345 4 359 4
13 11 8 6 4 1 359 358 357 358 358 356 354 353 357 358 359 355 1 10 8 9 6 351 350 359 40 212 256 222 199 80 310 337 336 339 336 337 339 330 342 351 351 5 11 29 57 71 60 54 58 59 53 64 44 53 31 90 73 72 72 69 87 71 53 9 8 10 14 10 13 330 4 36 58 47 34 0 345 328 325 330 329 349 348 7 7 3
12 10 7 3 2 360 356 355 355 357 357 356 354 353 355 357 356 358 357 355 357 351 352 2 3 4 339 26 60 66 75 101 355 322 336 339 333 334 337 337 338 9 7 21 8 33 44 60 56 72 83 81 64 72 63 73 61 87 95 94 79 81 83 70 70 2 9 25 3 341 331 21 5 8 54 37 41 4 336 330 321 331 324 3 356 18 13 4
11 10 7 3 0 358 356 357 356 357 358 355 355 354 353 356 355 355 355 355 351 350 354 10 3 319 351 344 50 61 56 14 331 330 337 336 332 333 335 346 353 9 23 24 9 18 24 52 72 78 59 72 87 85 97 75 56 87 97 97 104 93 95 112 103 75 10 40 354 323 314 39 24 4 334 37 23 3 341 321 329 339 330 6 4 9 15 5
11 9 6 3 0 360 0 359 356 356 358 357 353 355 353 353 357 355 354 351 354 0 5 354 344 343 120 26 152 61 37 337 315 328 343 334 328 336 349 11 353 14 24 20 14 14 359 36 48 8 101 82 68 92 238 132 65 75 107 117 105 89 69 39 99 110 84 2 17 341 348 86 42 310 90 34 27 0 337 316 329 343 338 357 360 1 24 12
10 8 6 3 2 2 2 0 357 355 356 358 355 353 353 352 354 356 354 355 359 0 349 339 359 44 46 327 264 71 26 334 324 339 343 338 329 342 3 6 2 6 30 13 24 16 22 360 26 32 85 73 54 52 45 67 117 124 114 107 97 77 84 65 36 25 167 104 12 334 326 3 49 329 177 37 9 347 338 324 323 342 2 356 358 2 22 21
9 7 6 4 3 2 1 359 356 354 354 356 357 354 352 352 352 355 353 353 351 345 341 344 356 48 47 6 80 69 9 321 335 351 338 340 328 355 357 0 0 9 13 43 34 8 353 3 330 342 43 98 80 49 60 92 129 123 128 120 103 96 78 59 45 26 334 39 354 310 305 341 134 236 35 343 3 340 334 326 338 348 13 8 11 7 9 25
8 7 5 4 3 2 0 358 356 352 353 360 357 356 352 352 350 348 351 345 350 341 339 331 348 182 114 52 56 63 309 304 322 358 339 342 347 334 332 7 6 5 5 25 25 8 349 343 281 249 127 194 85 134 57 297 112 159 205 136 129 123 82 43 43 358 356 21 327 312 270 237 173 360 55 11 345 352 332 325 353 346 8 14 11 8 9 21
8 6 5 3 2 1 359 358 357 353 351 358 359 352 347 342 344 341 343 355 344 337 329 347 345 15 253 49 44 243 265 291 341 349 7 2 340 1 17 348 10 6 358 18 14 356 357 6 18 65 32 80 75 12 133 221 154 189 203 239 160 179 70 34 56 4 3 10 316 330 351 152 96 115 40 37 359 347 336 328 334 6 5 10 3 5 12 21
7 5 4 3 1 360 360 360 360 356 350 350 356 343 338 331 327 335 331 315 306 324 307 317 3 37 57 80 166 249 245 295 317 13 7 340 3 337 7 344 344 11 350 10 353 356 349 344 347 82 31 62 114 346 149 212 146 207 23 290 0 335 36 64 54 12 9 350 330 333 330 122 141 93 132 97 7 356 330 323 329 23 7 10 5 358 5 11
6 4 1 1 0 1 2 1 0 356 347 338 342 359 3 337 324 318 316 329 336 330 343 205 321 224 34 98 250 209 244 245 13 4 352 351 356 340 352 330 337 360 330 21 348 334 322 327 297 27 69 34 88 105 214 167 148 15 145 14 3 6 138 33 29 44 10 345 333 322 262 350 335 165 138 147 132 37 326 313 351 29 4 351 8 13 360 356
4 2 360 359 359 0 1 359 356 350 340 327 319 316 341 8 357 313 304 286 300 332 322 41 355 46 93 54 15 314 344 15 352 336 329 355 1 344 307 302 270 321 350 298 222 283 283 9 36 37 47 169 247 254 289 36 32 21 24 19 6 346 332 160 136 52 32 339 338 352 283 299 310 6 8 131 96 74 328 314 16 24 2 345 347 7 3 357
2 360 359 357 356 353 353 352 349 341 328 318 316 306 315 318 346 323 283 264 319 299 43 25 317 357 65 268 227 10 355 337 324 331 341 359 348 311 328 337 351 324 290 295 297 215 276 137 257 331 36 39 349 339 121 36 351 9 359 356 43 353 340 338 151 104 24 7 323 309 273 273 281 322 311 27 87 35 344 325 34 34 358 337 334 2 8 6
2 356 356 355 354 349 347 349 344 334 327 308 289 274 293 322 323 25 19 351 109 77 149 77 157 32 111 52 18 333 320 305 340 308 298 338 51 329 333 319 308 300 292 315 352 18 330 47 356 91 39 24 19 14 63 25 355 335 347 353 340 326 335 341 351 2 4 360 322 301 272 300 328 317 291 100 85 56 301 15 48 48 16 334 336 4 8 11
359 356 352 351 349 347 341 345 343 334 324 304 260 255 273 280 267 55 31 351 53 355 25 353 4 63 269 323 306 296 319 294 299 341 346 355 329 283 270 230 250 313 1 75 9 23 350 73 31 40 18 2 13 14 29 6 343 338 322 308 296 314 318 354 12 46 11 335 323 311 317 308 307 313 319 85 74 36 321 335 78 112 155 294 281 53 32 10
358 354 351 348 346 343 340 339 333 328 336 331 312 283 208 62 49 15 2 39 61 70 100 317 16 53 43 355 336 310 265 325 324 4 354 350 324 323 336 318 263 325 36 43 329 32 345 59 42 29 336 344 354 358 347 332 317 303 289 270 299 307 303 353 357 29 6 326 294 321 299 299 305 310 310 80 88 319 283 233 141 191 188 219 302 27 38 95
358 354 352 349 345 341 340 334 341 344 334 321 296 35 48 340 33 85 42 70 59 47 74 50 57 85 30 285 319 349 6 326 123 6 3 308 236 293 357 348 10 38 8 2 57 75 20 64 30 15 341 326 323 333 326 317 304 301 291 315 314 347 342 321 344 30 341 5 293 313 312 297 296 299 313 107 116 283 330 26 15 25 355 316 56 39 31 3
356 353 351 350 345 340 333 336 350 358 5 40 58 73 84 68 276 47 250 73 31 353 83 146 244 60 196 242 312 71 214 280 350 6 351 3 353 43 321 48 42 51 345 31 54 34 38 66 344 358 337 306 286 279 321 272 282 284 271 331 323 347 337 282 104 44 336 333 283 312 314 299 291 281 190 135 287 234 85 83 94 162 263 338 36 48 33 355
355 350 350 351 348 336 335 331 345 19 37 27 47 79 84 98 66 190 272 131 88 283 53 26 36 27 8 180 14 281 8 36 329 352 356 348 352 56 328 34 52 48 35 29 68 22 53 17 1 319 332 316 290 9 349 320 217 286 324 26 343 355 19 312 312 350 322 303 299 329 305 291 287 253 145 126 169 73 91 98 91 274 281 80 21 36 7 29
355 349 349 354 347 343 326 328 303 30 52 69 74 61 87 32 270 226 221 67 124 357 57 313 22 23 38 6 358 21 16 355 352 337 354 8 23 285 12 20 47 41 40 48 74 86 131 269 317 319 255 251 306 359 16 1 7 147 9 49 329 342 327 254 306 321 304 314 14 326 299 277 241 135 235 164 117 115 132 109 209 246 185 148 92 15 313 330
355 349 347 350 353 342 331 318 38 33 205 74 64 75 75 252 263 316 55 48 49 39 340 92 269 106 316 279 264 304 36 202 51 250 329 27 345 334 56 183 308 25 7 331 128 93 90 177 237 299 294 249 277 354 13 334 333 330 124 105 225 305 301 301 301 323 325 13 66 3 346 314 238 236 160 130 128 216 143 136 231 251 181 185 167 204 246 200
357 352 343 342 347 333 309 3 56 316 63 52 53 78 112 229 284 323 32 140 65 312 205 10 193 345 163 355 340 116 262 38 258 279 287 44 187 102 266 28 32 32 344 358 81 82 344 177 184 297 310 300 251 121 287 34 324 322 267 206 105 276 280 302 320 2 348 343 312 51 80 289 325 264 160 175 201 211 131 188 207 221 198 236 171 189 206 156
357 355 346 341 339 335 312 81 249 215 138 97 78 339 51 273 264 303 77 127 40 330 15 313 30 360 128 319 324 165 30 339 42 296 11 17 40 209 47 360 106 105 110 150 29 358 344 10 5 341 333 351 30 1 40 30 343 302 188 223 281 300 311 313 338 298 255 279 322 32 117 259 316 297 120 95 301 285 196 194 193 201 194 213 194 157 132 119
353 356 351 344 337 352 56 141 219 65 55 62 322 73 290 259 235 243 50 70 350 316 330 335 87 310 3 313 348 54 159 281 355 10 112 253 134 269 80 344 45 330 134 81 41 268 73 343 14 347 345 29 10 254 310 56 62 263 333 350 304 280 294 312 258 268 257 329 301 356 117 24 257 237 317 123 290 264 248 229 186 185 188 196 194 143 138 152
354 356 352 346 332 327 23 36 51 82 55 17 297 263 263 282 247 76 285 102 244 28 195 11 193 20 347 316 44 38 234 10 41 298 329 109 248 157 33 20 332 307 144 178 93 188 283 133 287 298 333 359 280 321 299 259 311 282 326 304 275 231 161 213 228 264 291 50 275 185 242 320 293 241 172 157 283 288 276 194 188 163 171 177 182 154 163 149
356 358 357 342 313 322 29 77 50 32 322 358 298 296 275 261 54 32 26 354 42 288 29 291 18 297 319 321 125 21 13 17 151 298 312 41 324 117 108 11 214 356 330 350 57 31 114 111 22 149 29 290 293 282 263 231 230 294 307 289 278 165 168 278 250 277 320 297 242 184 227 92 301 273 187 159 236 212 323 89 105 129 146 166 162 155 167 172
359 359 3 359 47 3 282 80 42 5 347 300 323 290 254 268 78 75 89 221 57 264 268 36 353 317 358 33 346 346 351 1 355 4 346 4 6 24 26 69 289 260 307 215 134 166 141 112 96 356 162 291 236 307 207 199 258 21 321 314 299 115 2 264 288 149 44 279 199 176 164 162 145 292 33 120 141 111 343 164 143 148 161 165 152 160 170 173
356 356 6 27 338 320 32 49 335 355 317 313 307 267 225 48 13 74 171 1 257 315 72 311 333 354 338 305 297 345 346 319 20 16 6 2 24 28 14 60 339 16 352 36 328 138 190 185 94 128 188 67 324 282 207 18 288 270 308 331 15 312 348 338 158 338 256 281 204 153 20 339 228 227 291 55 71 108 63 11 135 149 163 161 153 165 162 161
334 338 333 28 360 68 72 277 279 324 324 292 307 284 58 95 64 266 210 2 251 41 295 140 276 326 318 286 11 343 123 29 316 348 166 292 109 50 64 58 327 110 309 341 322 353 321 350 341 185 342 280 305 28 335 9 358 344 15 335 15 1 23 335 301 253 284 43 186 144 193 237 263 261 322 85 53 51 55 57 41 120 150 159 155 155 157 158
320 321 20 9 64 89 137 311 316 327 308 259 17 30 40 60 216 51 127 349 253 327 314 323 330 296 36 54 328 355 349 203 355 339 348 1 44 46 19 37 28 352 18 321 8 0 349 0 341 5 328 273 47 70 121 225 316 306 300 55 244 58 106 301 346 329 296 290 311 306 112 252 341 259 26 101 65 46 63 52 48 37 66 117 137 140 157 168
325 293 164 172 185 84 87 25 323 283 269 269 70 105 89 154 129 338 183 10 359 309 272 353 312 336 307 31 129 92 105 332 30 335 20 20 10 31 5 347 358 10 261 1 56 259 117 235 269 327 275 335 34 64 188 320 276 238 252 229 39 71 39 210 265 284 304 329 325 328 180 234 266 120 43 43 63 96 82 90 69 50 38 48 84 160 188 195
301 171 206 105 52 76 82 98 286 249 275 34 64 39 54 254 158 15 85 277 78 43 343 324 314 317 356 172 335 199 281 116 327 28 25 42 360 58 337 27 6 7 19 28 330 355 345 280 154 81 10 34 67 325 39 35 27 298 5 55 237 251 153 295 281 237 2 131 250 211 306 314 328 65 47 28 35 154 149 139 149 176 165 151 228 262 227 219
274 215 227 99 81 105 75 59 269 268 253 51 74 71 52 28 230 329 14 12 34 332 274 6 342 38 10 315 72 1 307 111 265 61 9 207 46 32 75 85 315 23 49 91 351 128 43 286 284 116 307 6 5 26 331 359 57 321 23 253 222 93 128 103 300 275 216 260 282 8 303 317 2 321 323 353 290 175 187 198 175 195 186 201 218 222 225 227
325 328 225 326 18 69 195 151 249 232 288 71 59 95 199 101 328 15 345 317 225 287 295 17 258 88 340 295 349 7 322 106 342 17 58 46 112 282 83 85 348 55 336 62 123 311 16 311 353 337 101 124 1 38 351 269 203 75 231 235 63 336 7 294 291 346 337 328 299 282 344 318 284 320 344 333 253 201 193 195 164 217 225 234 231 225 224 223
240 286 47 191 59 17 157 212 261 259 43 65 121 125 349 86 359 41 2 310 220 257 41 109 47 6 118 3 300 97 12 33 331 20 33 348 60 272 125 254 186 205 207 360 94 343 290 194 297 257 12 163 139 81 45 247 328 332 341 322 345 125 181 337 171 239 254 285 355 280 2 283 350 39 341 336 34 30 71 90 204 282 269 333 315 297 258 228
315 32 348 190 223 288 61 32 323 40 54 86 53 76 247 84 83 88 37 3 73 6 44 6 348 297 45 246 61 347 360 319 1 287 113 320 126 353 70 267 78 171 312 130 329 348 323 100 272 262 189 38 329 110 102 20 79 328 335 215 340 181 189 157 242 159 190 273 253 307 319 287 314 343 327 28 33 29 23 40 33 33 17 11 35 23 357 343
114 100 256 140 269 273 182 28 47 31 74 123 51 105 215 176 196 133 120 6 102 79 73 54 349 62 283 320 13 119 315 328 347 323 12 294 66 332 19 29 305 36 126 34 145 302 288 255 255 313 327 302 268 167 348 23 37 131 164 32 80 34 9 1 292 51 10 71 278 342 286 282 296 349 347 29 42 62 23 21 8 324 356 12 346 84 235 276
317 46 298 125 37 172 91 58 43 348 75 82 77 14 73 185 21 120 71 51 18 101 67 102 61 76 25 44 273 356 29 282 128 269 24 29 214 181 46 293 55 326 27 319 164 130 156 298 292 288 260 291 133 139 45 168 109 129 93 261 44 325 146 326 303 334 353 249 93 221 274 275 226 303 19 23 63 73 73 6 281 288 338 352 347 335 323 275
28 288 220 345 285 279 65 83 90 49 64 57 254 67 347 35 92 322 341 275 37 293 241 56 17 61 352 65 309 50 35 259 123 288 301 290 267 85 158 33 3 329 20 296 102 31 95 239 301 264 269 80 106 124 118 26 330 41 291 301 20 194 165 194 237 122 260 238 322 255 220 259 262 330 310 297 268 192 229 221 266 290 324 316 345 337 333 337
275 311 326 269 164 313 84 95 98 72 103 322 172 117 300 155 10 47 43 343 1 353 352 91 170 27 125 346 25 338 337 11 124 139 17 330 321 319 108 140 44 138 10 8 8 337 19 237 97 298 309 263 324 6 17 315 34 197 241 185 207 226 54 108 237 344 278 205 204 172 251 272 301 289 284 282 235 311 311 302 272 262 264 292 292 264 300 307
303 219 245 317 2 23 106 224 119 127 134 125 138 78 137 74 23 40 356 74 307 61 297 68 34 117 62 68 54 21 1 78 291 84 125 253 148 59 91 189 42 13 54 43 341 316 175 286 11 342 343 343 339 336 332 321 322 302 220 138 160 199 168 132 305 140 229 250 188 216 257 253 292 330 299 303 312 312 318 322 312 313 355 343 324 295 293 290
30 40 299 353 9 42 74 233 67 124 135 149 100 203 138 101 143 75 11 64 24 223 42 133 25 32 121 123 62 22 343 339 172 298 3 329 123 266 160 110 188 34 115 69 5 301 269 323 241 219 212 236 253 275 311 351 322 302 290 281 273 203 204 195 209 241 235 257 248 234 244 282 283 285 287 287 314 315 313 315 313 316 317 317 300 297 300 290
267 64 348 337 356 48 74 40 101 123 151 198 129 158 141 101 131 131 314 78 92 59 291 294 168 159 173 184 148 93 323 314 315 330 245 235 317 108 163 194 108 109 117 44 41 30 284 274 223 229 242 247 268 281 297 321 288 284 284 283 273 259 207 198 193 233 99 332 271 252 243 256 276 302 308 308 303 305 307 313 315 312 307 295 275 266 271 292
73 244 145 180 145 329 18 9 31 78 70 108 88 146 139 145 184 168 308 202 82 295 96 280 116 245 178 165 154 178 167 207 18 270 302 222 301 161 116 18 212 179 162 69 347 49 225 259 243 197 244 249 264 279 293 293 276 274 276 274 274 253 234 231 234 238 239 236 251 271 299 295 286 291 293 292 293 293 299 305 301 302 302 286 278 264 275 277
95 90 90 194 63 70 14 249 349 96 75 79 121 158 153 166 174 169 153 125 253 220 209 181 223 207 211 199 152 134 157 360 294 244 242 277 226 323 293 115 18 83 236 91 25 102 24 238 255 292 286 287 282 278 280 278 281 280 265 264 257 253 243 234 246 241 227 243 254 270 277 276 278 279 280 283 286 288 287 290 305 320 285 284 290 281 251 259
62 98 57 319 78 125 100 277 55 356 84 285 120 224 165 178 165 106 123 134 124 269 150 210 248 188 183 190 177 197 196 185 207 260 244 210 291 167 229 253 137 295 220 194 138 299 118 282 85 295 290 283 276 268 267 266 284 289 289 279 264 257 259 243 241 252 244 260 259 260 266 271 272 269 275 274 274 273 285 292 264 251 278 284 291 285 274 268
188 158 253 120 94 42 192 162 216 311 161 329 176 218 181 193 214 159 176 198 173 175 181 192 179 114 26 172 206 230 259 276 220 234 258 176 243 176 131 312 106 140 212 177 201 288 136 268 19 20 318 300 270 329 310 291 286 279 282 286 285 245 233 248 224 219 197 231 240 259 269 264 265 275 251 255 268 289 285 285 294 263 249 263 266 266 271 276
246 152 151 70 97 239 168 58 306 55 207 207 100 165 188 211 139 128 85 94 25 113 185 167 150 157 165 202 234 223 108 92 275 280 243 261 268 280 254 267 59 144 169 218 154 160 185 247 360 356 318 270 249 299 303 313 304 295 272 245 232 199 203 240 240 201 206 198 227 232 237 244 263 266 309 297 291 285 290 280 286 286 265 255 257 258 256 262